Wind_Speed
19 19 19 20 21 21 22 22 23 22 21 21 21 20 20 20 20 21 22 22 21 20 20 20 21 21 21 22 22 22 23 23 23 24 24 24 24 24 24 25 25 25 25 25
19 19 19 19 20 20 21 22 23 22 21 21 21 21 21 22 22 23 23 23 22 22 22 22 23 23 22 23 23 23 23 24 24 24 25 25 25 24 25 26 26 26 26 26
19 19 20 20 18 20 21 21 22 22 21 21 22 22 22 23 24 24 24 24 24 23 23 23 23 23 24 24 24 24 24 24 24 25 25 25 25 26 26 26 26 26 27 27
19 20 21 19 19 21 21 21 22 21 21 21 21 21 21 22 23 24 24 24 25 25 25 24 24 24 24 24 25 25 26 26 26 26 26 26 26 27 27 27 28 28 28 29
20 21 21 20 20 21 21 21 21 21 21 21 21 22 22 23 23 24 24 24 24 25 25 25 25 25 25 25 25 26 26 26 26 27 27 28 28 29 29 29 30 30 30 30
21 21 21 20 21 22 22 22 20 20 20 21 21 22 22 23 24 24 24 25 25 25 25 26 26 26 27 27 27 27 27 26 27 28 28 29 29 30 30 30 31 31 31 31
22 22 22 21 21 22 22 21 22 22 21 21 22 22 23 24 25 25 25 26 26 26 25 25 26 26 27 28 28 28 28 28 28 29 30 30 30 31 31 31 32 31 30 30
22 22 21 21 21 21 21 22 22 23 22 22 22 23 24 24 25 25 26 26 27 27 26 26 27 27 28 28 29 29 29 30 30 30 30 31 31 32 32 32 33 31 31 31
21 21 21 22 22 23 22 22 23 23 23 24 24 24 24 25 25 26 27 27 28 28 27 27 27 28 29 30 30 30 30 31 31 31 31 32 32 33 33 32 32 32 32 32
22 21 22 23 23 23 24 23 23 24 24 25 26 26 26 26 26 27 28 29 29 29 28 28 28 28 29 30 30 30 31 31 32 32 32 32 32 33 33 32 32 32 32 32
23 23 23 23 23 24 24 24 25 26 26 27 28 28 28 28 27 27 28 29 29 29 29 29 30 30 30 30 30 31 31 31 31 32 32 33 32 33 32 32 31 31 31 31
23 23 24 24 24 24 25 25 26 27 27 28 29 29 29 29 29 29 29 30 30 31 30 30 30 30 30 31 31 31 31 32 32 32 32 33 33 32 32 32 32 31 31 31
24 24 24 24 25 25 25 26 27 28 28 28 29 29 30 30 30 30 30 30 31 31 31 30 30 30 31 31 32 32 33 33 32 32 33 33 33 33 33 32 32 32 32 32
25 25 25 25 26 26 27 27 28 28 29 29 29 29 30 30 30 30 30 30 30 30 30 30 31 31 31 31 32 32 33 33 33 33 33 33 33 32 32 32 32 32 32 32
27 26 26 26 26 27 28 29 29 29 29 29 30 30 30 30 30 30 29 29 29 30 29 30 30 30 31 31 32 33 33 33 32 32 32 32 32 32 32 32 31 31 31 31
27 27 27 27 28 29 29 29 30 30 29 29 30 30 30 30 30 29 29 29 29 29 29 30 31 31 31 32 32 32 32 32 32 32 32 31 31 31 31 31 31 31 31 31
27 27 28 28 29 28 29 29 30 30 29 29 29 30 30 30 30 30 30 30 30 29 30 31 31 31 32 32 32 32 32 32 32 31 31 31 32 31 31 30 31 31 31 31
27 27 28 29 29 29 30 30 29 29 29 29 30 31 31 31 30 31 31 31 30 30 31 31 31 31 31 32 31 31 31 32 32 31 31 32 32 32 32 32 31 31 31 31
27 28 28 29 28 29 29 29 29 29 29 30 30 31 31 31 31 31 30 30 30 30 30 31 31 31 31 31 31 31 31 31 32 32 32 32 31 31 32 32 32 32 32 31
28 28 29 29 29 29 28 28 28 29 29 29 30 30 30 30 30 30 30 30 30 30 31 31 32 32 31 31 31 31 31 31 31 32 31 31 31 32 32 32 32 32 32 32
28 28 29 29 28 28 29 29 29 29 29 29 29 29 29 29 29 29 29 29 30 31 32 32 32 31 31 31 31 31 32 32 32 32 31 31 32 32 33 33 32 32 31 31
29 29 29 29 29 29 30 30 30 30 30 30 29 29 28 29 29 29 29 30 30 31 31 31 31 31 31 31 31 32 32 32 32 32 32 32 32 33 33 32 31 31 31 30
29 29 30 30 30 30 30 30 30 30 30 29 29 29 28 28 29 29 29 29 30 30 31 31 31 31 32 32 32 32 32 33 32 32 32 32 32 32 32 32 32 31 31 30
29 29 30 31 30 30 29 29 29 30 30 29 29 30 30 30 29 29 29 29 30 30 30 30 30 31 31 31 32 32 32 32 32 32 32 32 32 32 32 32 31 31 30 30
29 29 29 29 29 29 29 29 28 28 29 29 29 30 29 29 29 29 30 30 30 29 29 29 30 31 31 31 31 31 32 32 32 32 32 32 32 32 32 31 30 30 29 29
29 29 29 29 28 29 29 28 28 28 28 28 28 28 28 28 29 30 30 29 29 29 30 30 30 31 31 31 31 31 32 32 31 31 31 31 31 31 30 29 29 28 28 28
28 29 28 28 27 28 27 28 28 28 28 28 28 28 28 29 29 30 30 29 29 30 30 31 31 31 31 31 31 31 31 31 31 31 31 31 30 30 29 28 27 27 27 28
Wind_Direction
259 258 256 256 256 256 256 258 261 263 262 262 264 265 264 268 269 272 272 273 273 273 274 275 276 278 279 281 283 285 286 287 288 288 288 287 284 282 282 283 284 282 282 282
257 258 258 256 255 256 257 258 259 261 261 261 264 265 265 267 268 270 270 270 271 273 274 273 275 278 281 282 284 286 287 287 287 287 288 287 286 284 284 285 285 284 282 282
257 257 258 257 258 258 260 261 263 263 262 260 260 263 264 265 267 268 271 272 272 274 276 276 277 277 280 282 282 284 286 286 286 287 287 286 285 284 285 286 286 285 283 282
260 258 258 262 260 260 262 262 263 265 263 262 261 262 266 267 267 268 270 271 273 274 274 275 277 278 279 280 281 283 284 285 286 287 286 286 286 285 285 286 286 286 285 283
263 262 263 262 264 264 265 265 265 265 264 264 266 267 268 269 268 267 268 269 271 273 274 275 276 278 280 280 282 283 283 284 286 287 286 286 287 286 286 285 285 285 284 284
262 264 266 266 265 265 267 265 265 267 268 268 269 268 267 267 266 265 267 269 270 272 273 275 276 277 279 281 283 283 284 285 286 287 288 287 287 287 287 287 287 285 284 282
262 264 267 267 267 267 267 268 268 269 271 272 271 270 270 270 269 269 270 271 270 271 273 274 276 278 279 281 283 284 284 286 288 288 288 288 287 287 287 288 288 287 285 284
262 264 267 268 269 268 270 269 271 271 272 273 275 274 275 275 274 273 273 272 272 273 274 275 276 278 279 281 283 284 285 286 287 288 288 287 287 287 288 288 288 287 285 284
261 265 269 269 270 270 271 271 273 273 272 275 278 278 278 278 277 276 274 273 273 274 275 276 278 279 280 281 283 284 285 286 287 288 288 287 288 288 288 288 287 286 286 285
264 268 270 270 271 271 272 272 274 275 276 277 278 279 280 279 278 277 275 274 273 273 274 276 277 278 280 281 283 284 286 286 287 288 289 289 289 288 288 287 286 286 285 285
265 266 268 270 272 273 272 274 275 276 278 279 278 278 279 280 278 277 277 277 275 274 276 276 277 278 279 280 282 284 285 286 287 287 287 288 288 288 287 286 286 286 285 285
266 268 270 271 272 272 274 275 276 277 278 279 280 279 279 279 278 278 278 277 276 276 277 277 277 278 279 280 282 283 284 285 285 286 286 287 287 287 286 285 285 285 284 284
268 268 270 271 271 273 275 276 277 278 279 281 280 280 280 281 279 278 278 277 277 277 277 278 279 279 280 280 282 283 284 285 285 285 286 286 287 287 286 285 284 284 284 284
269 270 270 272 273 275 277 278 279 280 281 282 282 281 281 281 280 279 278 278 277 277 277 278 280 281 281 281 282 283 283 285 285 285 285 286 287 287 287 286 285 284 283 283
269 270 272 273 275 277 279 280 281 281 282 282 281 280 281 281 280 279 278 277 277 277 278 279 280 281 282 283 283 284 284 285 285 285 285 286 286 287 286 286 285 284 283 283
269 270 271 273 276 277 279 280 280 280 280 280 280 280 280 280 280 279 277 277 277 277 278 278 280 281 282 283 283 284 285 285 285 286 285 285 286 286 286 286 285 284 284 284
270 271 272 273 275 277 278 279 280 280 279 279 280 281 281 281 280 278 278 278 278 279 279 280 280 281 281 282 283 284 284 285 286 286 286 286 286 287 286 286 286 285 285 285
271 272 273 274 276 278 279 280 280 280 280 280 280 281 280 281 280 279 278 278 279 279 280 280 280 281 281 282 283 285 285 286 286 286 286 286 286 286 287 287 287 287 286 285
273 273 274 275 277 279 280 280 280 280 280 281 281 281 280 280 281 280 280 279 279 280 279 280 280 281 283 283 284 284 285 286 287 286 287 286 285 285 286 287 288 288 288 287
273 274 274 275 276 277 279 280 280 280 281 281 282 281 281 282 282 281 280 280 280 280 281 281 281 281 281 283 285 285 286 287 288 287 285 284 285 285 285 286 286 287 288 288
273 273 274 275 275 276 278 281 281 281 282 282 283 283 282 282 282 281 281 281 281 282 282 283 282 282 282 283 285 285 286 287 287 286 284 285 286 286 286 285 285 286 287 286
273 274 274 275 275 275 278 280 281 281 281 282 282 282 282 282 282 281 281 282 282 283 283 283 283 283 284 285 285 285 286 286 286 286 286 286 286 287 288 287 286 286 287 287
273 273 274 276 276 277 278 279 279 279 280 281 282 282 282 282 282 282 282 283 284 284 284 283 282 282 284 285 285 285 285 285 286 286 287 287 287 287 287 286 286 287 287 287
274 274 275 276 276 278 279 279 279 280 280 280 281 281 281 282 282 283 283 284 285 284 284 284 284 284 284 284 285 285 285 286 286 286 287 287 287 287 287 286 285 285 286 286
275 275 274 274 275 278 280 280 280 280 279 279 281 281 281 282 282 283 283 284 285 285 285 285 287 287 286 286 285 285 285 286 287 287 287 287 287 287 287 286 286 286 286 285
275 274 274 274 275 277 278 278 278 279 280 281 281 283 282 282 283 284 284 284 285 285 286 287 288 288 288 287 286 285 285 286 287 287 287 287 287 286 286 286 285 285 285 285
275 275 275 275 276 277 277 277 278 279 280 281 282 283 283 283 283 284 284 284 285 286 287 288 289 289 289 288 287 286 286 286 287 286 286 287 287 286 286 286 285 285 285 286
Height
5785 5786 5786 5787 5788 5789 5789 5789 5790 5791 5791 5792 5792 5793 5793 5793 5793 5793 5793 5792 5792 5792 5791 5790 5790 5789 5788 5787 5786 5785 5783 5782 5780 5778 5777 5775 5773 5772 5770 5768 5767 5765 5763 5762
5780 5780 5780 5781 5782 5782 5783 5783 5783 5784 5785 5786 5786 5786 5786 5786 5786 5786 5786 5785 5785 5785 5785 5784 5783 5783 5782 5781 5780 5778 5777 5775 5773 5771 5770 5768 5766 5764 5763 5761 5759 5757 5756 5754
5774 5775 5774 5775 5777 5776 5776 5777 5777 5778 5779 5779 5780 5779 5779 5779 5779 5779 5779 5778 5778 5778 5777 5777 5776 5775 5775 5774 5772 5771 5770 5768 5766 5764 5762 5760 5759 5757 5755 5753 5752 5750 5748 5746
5768 5769 5769 5773 5771 5770 5770 5770 5771 5771 5772 5772 5773 5773 5772 5772 5771 5771 5771 5771 5771 5770 5770 5769 5768 5767 5767 5766 5765 5763 5762 5760 5758 5757 5755 5753 5751 5749 5747 5745 5743 5741 5740 5738
5762 5762 5763 5765 5765 5764 5764 5764 5765 5765 5765 5765 5765 5765 5765 5764 5764 5764 5763 5763 5763 5762 5762 5761 5760 5760 5759 5758 5757 5756 5754 5753 5751 5749 5747 5745 5743 5741 5739 5737 5735 5733 5731 5728
5756 5756 5756 5760 5759 5758 5758 5758 5759 5759 5758 5759 5758 5758 5758 5757 5756 5756 5756 5755 5754 5754 5753 5753 5753 5752 5751 5750 5749 5748 5746 5744 5743 5741 5739 5737 5735 5732 5730 5728 5725 5723 5721 5719
5750 5749 5750 5752 5752 5752 5753 5754 5753 5752 5752 5752 5751 5751 5750 5749 5749 5748 5748 5747 5746 5746 5745 5745 5744 5744 5743 5742 5741 5740 5738 5736 5734 5732 5730 5728 5726 5723 5721 5718 5716 5714 5712 5709
5743 5744 5747 5745 5745 5745 5746 5745 5745 5745 5744 5744 5744 5743 5742 5742 5741 5740 5740 5739 5738 5738 5737 5737 5736 5735 5734 5734 5732 5731 5729 5727 5725 5723 5721 5719 5716 5714 5711 5709 5706 5704 5702 5700
5738 5740 5739 5739 5738 5738 5738 5738 5738 5738 5737 5737 5736 5735 5735 5734 5733 5732 5731 5731 5730 5729 5729 5728 5727 5727 5726 5725 5723 5722 5720 5718 5716 5714 5712 5710 5707 5704 5702 5699 5696 5694 5692 5690
5731 5732 5732 5731 5731 5731 5731 5731 5730 5730 5730 5729 5729 5728 5727 5726 5725 5723 5723 5722 5721 5721 5720 5720 5719 5718 5717 5715 5714 5712 5710 5709 5706 5704 5702 5700 5697 5694 5692 5689 5687 5684 5682 5680
5724 5725 5725 5725 5724 5724 5724 5723 5723 5722 5722 5721 5720 5719 5718 5718 5716 5715 5714 5713 5712 5712 5711 5710 5709 5708 5707 5706 5704 5703 5701 5699 5697 5695 5692 5690 5688 5685 5682 5680 5677 5675 5673 5671
5718 5718 5718 5718 5717 5717 5716 5716 5715 5714 5713 5712 5711 5710 5709 5709 5707 5706 5705 5704 5703 5702 5702 5701 5700 5699 5698 5696 5694 5693 5691 5689 5687 5685 5683 5680 5678 5676 5673 5670 5668 5665 5663 5661
5710 5710 5710 5710 5710 5709 5709 5708 5707 5706 5705 5704 5703 5701 5700 5699 5699 5697 5696 5695 5694 5693 5692 5691 5690 5690 5688 5687 5685 5683 5682 5680 5677 5675 5673 5671 5668 5665 5663 5661 5658 5656 5654 5652
5702 5702 5702 5702 5702 5701 5700 5699 5698 5697 5696 5695 5694 5693 5691 5690 5689 5688 5687 5686 5685 5684 5683 5682 5681 5680 5679 5677 5675 5674 5672 5670 5667 5665 5663 5661 5658 5655 5653 5650 5648 5646 5644 5642
5694 5694 5695 5694 5693 5693 5692 5691 5690 5689 5687 5686 5685 5683 5682 5681 5680 5679 5678 5677 5676 5674 5674 5673 5672 5671 5669 5667 5666 5664 5662 5660 5657 5655 5653 5651 5648 5646 5643 5641 5638 5636 5634 5632
5686 5686 5686 5685 5685 5684 5683 5682 5681 5679 5678 5677 5675 5674 5673 5672 5670 5669 5668 5668 5667 5666 5665 5664 5663 5661 5659 5658 5656 5654 5652 5649 5647 5645 5643 5641 5638 5636 5634 5631 5629 5627 5625 5623
5678 5677 5677 5676 5676 5675 5673 5672 5671 5670 5668 5667 5666 5665 5663 5662 5661 5660 5659 5658 5657 5656 5655 5654 5653 5651 5650 5648 5646 5644 5642 5639 5637 5635 5633 5631 5629 5626 5624 5622 5619 5617 5615 5613
5669 5669 5668 5667 5667 5665 5664 5663 5661 5660 5659 5658 5656 5655 5654 5653 5651 5650 5649 5649 5648 5647 5646 5644 5643 5641 5640 5638 5636 5634 5632 5630 5628 5625 5623 5621 5619 5617 5614 5612 5609 5607 5605 5603
5660 5660 5659 5658 5657 5656 5654 5653 5652 5651 5650 5648 5647 5646 5644 5643 5642 5641 5640 5639 5638 5637 5636 5635 5633 5632 5630 5628 5626 5624 5622 5620 5618 5616 5613 5611 5609 5607 5604 5602 5600 5598 5596 5593
5651 5651 5650 5649 5648 5647 5645 5644 5643 5642 5640 5639 5638 5637 5635 5634 5633 5631 5631 5630 5629 5627 5626 5625 5624 5622 5620 5618 5616 5614 5612 5610 5608 5606 5603 5601 5599 5597 5595 5592 5590 5588 5586 5583
5642 5641 5640 5640 5639 5638 5636 5635 5634 5633 5631 5630 5629 5627 5626 5625 5623 5622 5621 5621 5620 5618 5616 5615 5614 5612 5610 5608 5606 5604 5602 5600 5598 5596 5593 5591 5589 5587 5585 5583 5581 5578 5576 5574
5632 5631 5631 5630 5629 5629 5627 5626 5625 5624 5622 5621 5620 5618 5617 5616 5615 5613 5612 5611 5610 5608 5607 5605 5603 5602 5600 5598 5596 5594 5592 5590 5588 5586 5583 5581 5579 5577 5574 5572 5570 5568 5566 5564
5622 5622 5621 5621 5620 5619 5618 5616 5615 5614 5613 5612 5611 5609 5608 5607 5605 5604 5603 5602 5600 5598 5597 5595 5593 5592 5590 5588 5586 5584 5582 5580 5577 5575 5573 5571 5569 5566 5564 5562 5560 5558 5556 5554
5612 5612 5611 5611 5610 5609 5608 5607 5606 5605 5604 5603 5602 5600 5599 5598 5596 5595 5593 5592 5590 5589 5587 5585 5583 5581 5579 5577 5575 5573 5571 5569 5567 5565 5562 5560 5558 5556 5554 5552 5550 5548 5546 5544
5602 5602 5601 5601 5600 5599 5598 5597 5596 5595 5594 5593 5592 5591 5589 5588 5587 5586 5584 5582 5581 5579 5577 5575 5573 5571 5569 5567 5565 5563 5560 5558 5556 5554 5552 5550 5548 5545 5543 5541 5539 5537 5536 5534
5593 5592 5592 5591 5590 5590 5589 5588 5587 5586 5585 5584 5583 5581 5580 5579 5577 5576 5574 5573 5571 5569 5567 5565 5563 5561 5559 5556 5554 5552 5550 5548 5546 5543 5541 5539 5537 5535 5533 5531 5529 5527 5526 5524
5584 5583 5582 5582 5581 5580 5579 5578 5578 5577 5576 5574 5573 5572 5571 5569 5568 5566 5564 5563 5561 5559 5557 5555 5553 5551 5548 5546 5544 5542 5540 5538 5536 5534 5532 5529 5527 5525 5523 5521 5519 5518 5516 5514